Regional Weather Roundup
Issued by NWS Upton, NY

Current Version | Previous Version | Graphics & Text | Print | Product List | Glossary Off
Versions: 1 2 3 4 5 6 7 8 9 10 11 12 13 14 15 16 17 18 19 20 21 22 23 24 25 26 27 28 29 30 31 32 33 34 35 36 37 38 39 40 41 42 43 44 45 46 47 48 49 50
402 ASUS41 KOKX 121609 RWROKX REGIONAL WEATHER ROUNDUP NATIONAL WEATHER SERVICE NEW YORK NY 1100 AM EST TUE DEC 12 2017 NOTE: "FAIR" INDICATES FEW OR NO CLOUDS BELOW 12,000 FEET WITH NO SIGNIFICANT WEATHER AND/OR OBSTRUCTIONS TO VISIBILITY. NYZ071-072-176-178-NJZ106-104-121700- NEW YORK CITY METRO AREA CITY SKY/WX TMP DP RH WIND PRES REMARKS Central Park CLOUDY 50 41 71 S8 29.55F Bronx Bot Gard N/A 50 39 66 SE9 29.52F Bronx Lehman C N/A 50 41 71 S9 N/A LaGuardia APRT CLOUDY 51 42 71 S14G26 29.52F Queens College N/A 50 41 71 S14 N/A Kennedy INTL CLOUDY 51 43 74 S20 29.55F Breezy Point N/A 50 N/A N/A S15G21 N/A Brooklyn Coll N/A 50 43 76 S12 N/A Staten Island N/A 48 39 71 S7 N/A Newark/Liberty CLOUDY 50 40 68 S9 29.54F Teterboro CLOUDY 50 40 68 S10 29.53F $$ NYZ177-179-078>081-121700- LONG ISLAND NEW YORK CITY SKY/WX TMP DP RH WIND PRES REMARKS Jones Beach N/A 52 N/A N/A S15G23 N/A Wantagh N/A 52 41 66 S12 N/A Matinecock PT N/A 50 N/A N/A S7G13 N/A Farmingdale CLOUDY 50 41 71 S16 29.55F MacArthur/ISP CLOUDY 52 41 66 S12 29.54F Shirley CLOUDY 51 46 83 S9 29.55F Mt Sinai Harb N/A N/A N/A N/A S9 N/A Westhampton LGT RAIN 51 44 77 S13G21 29.57F East Hampton LGT RAIN 49 43 80 S13G22 29.57F Southold N/A 48 43 81 SE10 N/A Montauk N/A 51 43 74 S9G18 29.60F $$ NYZ052-065-067-121700- HUDSON VALLEY CITY SKY/WX TMP DP RH WIND PRES REMARKS White Plains LGT RAIN 47 40 76 S8 29.52F Larchmont Harb N/A 48 N/A N/A S18 N/A Croton On Huds N/A 43 N/A N/A NW6 N/A Somers N/A 41 39 93 E2 N/A Brewster N/A 41 39 93 S1 N/A Newburgh CLOUDY 37 37 100 N7 29.54F FOG WCI 32 Montgomery MIX PCPN 34 32 92 N3 29.52F FOG Otisville N/A 32 32 100 CALM N/A Warwick N/A 41 36 81 S3 N/A Suffern N/A 43 39 87 S3 N/A Poughkeepsie CLOUDY 38 37 97 CALM 29.52F FOG Albany LGT SNOW 34 31 88 S10 29.54F FOG WCI 26 $$ NJZ001-105-106-008-010-013-015-019>022-104-121700- NEW JERSEY CITY SKY/WX TMP DP RH WIND PRES REMARKS Newark/Liberty CLOUDY 50 40 68 S9 29.54F Teterboro CLOUDY 50 40 68 S10 29.53F Caldwell LGT RAIN 45 39 79 W3 29.55F Somerville CLOUDY 41 38 89 CALM 29.53F Linden LGT RAIN 49 38 67 SW5 29.55S Perth Amboy N/A 48 N/A N/A SW12 N/A Sussex LGT RAIN 40 36 86 CALM 29.52F Andover NOT AVBL Trenton CLOUDY 45 36 70 W5 29.54F Millville CLOUDY 46 37 71 SW8 29.56F Atlantic City MOSUNNY 51 36 56 SW13G25 29.54F Wrightstown CLOUDY 48 36 63 CALM 29.52F Toms River CLOUDY 51 39 63 SW9 29.54F Belmar CLOUDY 51 38 60 S13 29.54F $$ PAZ047>061-062-071-121700- EASTERN PENNSYLVANIA CITY SKY/WX TMP DP RH WIND PRES REMARKS Philadelphia CLOUDY 45 34 65 SW10 29.56F Allentown CLOUDY 42 32 67 SW5 29.53F Scranton CLOUDY 39 31 72 SW8 29.49F WCI 33 $$ CTZ002-004>006-009-010-012-RIZ004-006-007-MAZ004-011-015-121700- SOUTHERN NEW ENGLAND IN CT CITY SKY/WX TMP DP RH WIND PRES REMARKS Bradley INTL LGT RAIN 33 32 96 N6 29.59F FOG WCI 28 Hartford LGT RAIN 39 37 92 CALM 29.58F FOG Danbury CLOUDY 42 40 92 CALM 29.55F Wtrbury/Oxford LGT RAIN 39 39 100 SE6 29.54F FOG WCI 35 Norwalk Harbor N/A 46 N/A N/A SE7 N/A Bridgeport CLOUDY 49 43 80 S8 29.55F Meriden LGT RAIN 36 36 100 CALM 29.57F FOG New Haven CLOUDY 48 43 82 SE10 29.56F Chester LGT RAIN 45 41 87 SE9 29.56F Groton LGT RAIN 49 42 77 S22 29.58F Wilimantic LGT RAIN 39 35 86 CALM 29.61F FOG IN RI CITY SKY/WX TMP DP RH WIND PRES REMARKS Providence CLOUDY 44 41 89 SE3 29.63F Block Island CLOUDY 50 43 77 S17 29.61F Westerly CLOUDY 50 42 74 SE15 29.61F IN MA CITY SKY/WX TMP DP RH WIND PRES REMARKS Boston LGT RAIN 41 37 86 SE15 29.67F Worcester MIX PCPN 31 28 89 E7 29.60F FOG WCI 24 Westfield FRZ RAIN 32 31 96 N7 29.59F FOG WCI 26 Provincetown CLOUDY 45 39 79 SE13 29.70F Nantucket CLOUDY 47 43 86 SE14 29.70F $$ ANZ330-335-338-340-345-350-353-355-121700- COASTAL MARINE OBSERVATIONS STATION/POSITION TIME SKY/WX TEMP WIND PRES VSBY WAVE AIR SEA DIR/SP/G HT/PER (UTC) (F) (DEG/KT/KT) (MB) (MI) (FT/S) NY HARB ENTRANCE 1450 52 53 180/ 19/ 23 1000.9 6/ 6 20 S FIRE ISLAND 1450 53 54 190/ 17/ 21 1002.3 6/ 6 GREAT SOUTH BAY 1530 47 45 200/ 10/ 14 N/A HUDSON CANYON 1550 56 57 190/ 19/ 23 1001.3 5/ 5 KINGS POINT 1524 49 46 220/ 16/ 19 1001.3 EXECUTION ROCKS 1530 51 160/ 12/ 19 N/A WESTERN LI SOUND 1449 49 180/ 8/ 12 N/A 1 CENTRAL LI SOUND 1515 49 140/ 16/ 19 N/A 1 ROBBINS REEF 1530 49 170/ 11/ 14 1001.1 $$ >>>>>>>>>>>>>>>>>>>>>>>>>>>> KEY <<<<<<<<<<<<<<<<<<<<<<<<<<< > < > SKY/WX - Sky Condition/Present Weather < > TMP - Temperature in Fahrenheit < > DP - Dew Point in Fahrenheit < > RH - Relative Humidity in Percent < > WIND - Direction (from) and Speed in MPH < > PRES - Mean Sea Level Pressure (inches of Hg) < > WCI - Wind Chill Index < > VSB - VISIBILITY IN MILES < > HX - HEAT INDEX < > TC - TEMPERATURE IN CELSIUS < > VRB - VARIABLE WIND DIRECTION < > < >>>>>>>>>>>>>>>>>>>>>>>>>>>> KEY <<<<<<<<<<<<<<<<<<<<<<<<<<<

USA.gov is the U.S. government's official web portal to all federal, state and local government web resources and services.